600  
NZUS99 KTBW 171717  
RWRTPA  
FLORIDA REGIONAL WEATHER ROUNDUP  
NATIONAL WEATHER SERVICE TAMPA BAY RUSKIN FL  
100 PM EDT TUE OCT 17 2017  
 
NOTE: "FAIR" INDICATES FEW OR NO CLOUDS BELOW 12,000 FEET WITH NO  
SIGNIFICANT WEATHER AND/OR S TO VISIBILITY
.  
 
 
STATION/POSITION
 
 
 
FLZ042-048>051-055-056-060-061-171800-  
EXTRA STATIONS  
 
CITY SKY/WX TMP DP RH WIND PRES REMARKS
 
EVERGLADES CTY NOT AVBL  
CRYSTAL RIVER CLOUDY 75 68 78 NE14 30.09F  
SEBRING FAIR 85 70 61 NE5 30.03F  
EGLIN AFB MOSUNNY 73 51 46 N12G17 30.18F  
CANAVERAL CLOUDY 75 72 89 NE14G24 30.04S  
 

 
FLZ001>010-012>015-171800-  
PANHANDLE FLORIDA  
 
CITY SKY/WX TMP DP RH WIND PRES REMARKS
 
PENSACOLA MOSUNNY 73 54 51 NE9 30.18F  
PENSACOLA NAS MOSUNNY 73 55 53 E12 30.18S  
MILTON NAS MOSUNNY 72 54 53 VRB7 30.19  
CRESTVIEW SUNNY 73 51 46 NE9G17 30.21S  
VALPARAISO MOSUNNY 73 52 47 NE10G21 30.17F  
MARY ESTHER PTSUNNY 72 55 53 E12 30.16  
PANAMA CITY FAIR 73 54 51 NE14G21 30.17S  
TYNDALL AFB SUNNY 73 57 55 E12 30.16F  
APALACHICOLA CLOUDY 73 60 63 E13 30.15S  
 
STATION/POSITION
 
 
29.2N 88.2W  
28.8N 86.0W  
28.5N 84.5W  
 

 
FLZ011-016>039-171800-  
NORTH FLORIDA  
 
CITY SKY/WX TMP DP RH WIND PRES REMARKS
 
MARIANNA SUNNY 73 47 39 NE16G23 30.20F  
TALLAHASSEE MOSUNNY 72 57 59 NE13 30.19F  
CROSS CITY MOSUNNY 76 62 62 NE14G22 30.17F  
GAINESVILLE CLOUDY 74 64 71 N15 30.16R  
JACKSONVILLE CLOUDY 72 63 73 NE18G28 30.15F  
JAX NAS CLOUDY 74 65 73 N24G31 30.15F  
JAX CRAIG CLOUDY 73 63 70 NE17G26 30.14F  
ST AUGUSTINE CLOUDY 74 67 78 N18G29 30.13F  
 
STATION/POSITION
 
 
KEATON BEACH  
31.4N 80.9W  
ST AUGUSTINE  
 

 
FLZ040-043>046-052-053-057-058-063-171800-  
CENTRAL FLORIDA  
 
CITY SKY/WX TMP DP RH WIND PRES REMARKS
 
OCALA CLOUDY 76 68 76 NE10G16 30.11S  
LEESBURG CLOUDY 78 71 79 NE15 30.09F  
SANFORD CLOUDY 80 71 74 N14 30.06F  
ORLANDO INTL CLOUDY 81 71 71 N12G21 30.05F  
KISSIMMEE CLOUDY 82 69 64 NE10 30.06F  
WINTER HAVEN CLOUDY 80 68 66 NE10 30.07F  
LAKELAND MOSUNNY 77 73 88 NE10 30.06F  
BARTOW PTSUNNY 79 70 73 N13 30.06F  
 

 
FLZ041-047-054-059-064-171800-  
EAST CENTRAL FLORIDA  
 
CITY SKY/WX TMP DP RH WIND PRES REMARKS
 
DAYTONA BEACH PTSUNNY 78 75 90 NE17 30.08F  
JFK SPACE CTR CLOUDY 77 76 97 E16G25 30.05F  
TITUSVILLE PTSUNNY 81 75 83 NE12 30.06S  
PATRICK AFB MOSUNNY 84 74 72 N12 30.03F HX 91  
MELBOURNE MOSUNNY 85 74 69 NE12 30.03F HX 92  
VERO BEACH CLOUDY 83 73 72 NE9 30.02F  
FT PIERCE MOSUNNY 83 74 74 NE8 30.02F  
STUART MOSUNNY 86 75 70 NE7 30.03F HX 95  
 
STATION/POSITION
 
 

 
FLZ042-048>051-055-056-060-061-171800-  
WEST CENTRAL FLORIDA  
 
CITY SKY/WX TMP DP RH WIND PRES REMARKS
 
BROOKSVILLE CLOUDY 78 69 73 NE9G21 30.08F  
TAMPA CLOUDY 78 71 79 NE8 30.06F  
MACDILL AFB CLOUDY 77 70 78 NE12G17 30.06F  
ST PETERSBURG PTSUNNY 79 72 79 E10 30.06F  
ST PET-WHITTED CLOUDY 75 73 93 E17 30.05F  
SARASOTA CLOUDY 80 71 74 E10 30.03S  
 
STATION/POSITION
 
 
CEDAR KEY  
28.5N 84.5W  
VENICE  
 

 
FLZ062-065-066-069-070-075>078-171800-  
SOUTHWEST FLORIDA AND KEYS  
 
CITY SKY/WX TMP DP RH WIND PRES REMARKS
 
PUNTA GORDA CLOUDY 81 72 74 E10 30.04F  
FT MYERS CLOUDY 79 74 84 NE12 30.01F  
SOUTHWEST INTL CLOUDY 83 74 74 NE8 30.01F  
NAPLES PTSUNNY 85 72 65 NE10 30.00F HX 91  
MARATHON SUNNY 89 72 56 E12 29.98F HX 96  
KEY WEST NAS MOSUNNY 87 78 74 E10 29.99F HX 100  
KEY WEST INTL MOSUNNY 87 75 67 E10 29.99F HX 96  
 
STATION/POSITION
 
 
VENICE  
SAND KEY  
MOLASSES REEF  
 

 
FLZ067-068-071>074-171800-  
SOUTHEAST FLORIDA  
 
CITY SKY/WX TMP DP RH WIND PRES REMARKS
 
W PALM BEACH PTSUNNY 86 73 65 NE12 30.01F HX 93  
POMPANO BEACH PTSUNNY 86 75 69 E12 30.01F HX 95  
FT LAUDER-EXEC MOSUNNY 86 74 67 E12 30.00F HX 94  
FT LAUDERDALE PTSUNNY 86 76 71 E12 30.00F HX 96  
PEMBROKE PINES MOSUNNY 89 73 59 E9 30.01F HX 97  
OPA LOCKA MOSUNNY 88 74 63 E8 30.00F HX 96  
MIAMI MOSUNNY 89 73 59 E10 30.00F HX 97  
WEST KENDALL MOSUNNY 87 72 60 SE8 29.99F HX 93  
HOMESTEAD SUNNY 86 77 75 E10 29.99F HX 96  
 
STATION/POSITION
 
 
LAKE WORTH  
FOWEY ROCKS  
SETTLEMENT POINT  
 

 
 
 
CLICK HERE TO GO TO PREVIOUS BULLETINS.

The Nexlab FL Page Main Text Page